Tracking 23114 objects as of 16-May-2021
HD Live streaming from Space Station
objects crossing your sky now

ARIANE 1 DEB

Track ARIANE 1 DEB now!
10-day predictions


NORAD ID: 40778
Int'l Code: 1979-104AF
Perigee: 663.2 km
Apogee: 13,592.8 km
Inclination: 17.9 °
Period: 260.1 minutes
Semi major axis: 13499 km
RCS: Unknown
Launch date: December 24, 1979
Source: European Space Agency (ESA)
Launch site: FRENCH GUIANA (FRGUI)

Note: This is SATELLITE DEBRIS
aabbcc
Your satellite tracking list
Your tracking list is empty




NASA's NSSDC Master Catalog

Two Line Element Set (TLE):
1 40778U 79104AF  21135.34747286  .00000145  00000-0  55248-3 0  9997
2 40778  17.9187 140.3305 4789084 352.0235  13.7360  5.53540018151128
Source of the keplerian elements: AFSPC